Location: Bismarck
(46.7731°N, 100.8200°W)
Time: 06:30:19
(UTC-06:00)

ISS - Pass Details

Date: 02 December 2017
Orbit: 403 x 407 km, 51.6° (Epoch: 12 December)

Event Time Altitude Azimuth Distance (km) Brightness Sun altitude
Rises 21:53:48 0° 295° (WNW) 2,331 - -49.6°
Reaches altitude 10° 21:55:55 10° 299° (WNW) 1,468 - -49.9°
Maximum altitude 21:59:10 59° 20° (NNE) 475 - -50.5°
Drops below altitude 10° 22:02:24 10° 101° (ESE) 1,460 - -51.0°
Sets 22:04:30 0° 106° (ESE) 2,317 - -51.3°
